• In Czech Republic
  • List of Countries
  • For 7 days
  • Water Temperature
  • Satellite Maps
  • Weather Map
  • Weather Widgets
  • user-avatar
    Login

    Hourly Weather San Felipe Ixtacuixtla

    Today, 24 November, Friday

    Time Temperature Precipitation Wind Pressure Humidity
    00:00 +9°C° 0 mm 1 mps 576 mmHg 72%
    01:00 +8°C° 0 mm 1 mps 575 mmHg 72%
    02:00 +8°C° 0 mm 1 mps 575 mmHg 72%
    03:00 +8°C° 0 mm 1 mps 575 mmHg 71%
    04:00 +8°C° 0 mm 1 mps 575 mmHg 70%
    05:00 +7°C° 0 mm 1 mps 575 mmHg 69%
    06:00 +9°C° 0 mm 1 mps 576 mmHg 62%
    07:00 +11°C° 0 mm 1 mps 577 mmHg 54%
    08:00 +13°C° 0 mm 1 mps 578 mmHg 46%
    09:00 +15°C° 0 mm 1 mps 578 mmHg 40%
    10:00 +16°C° 0 mm 1 mps 579 mmHg 34%
    11:00 +18°C° 0 mm 2 mps 579 mmHg 27%
    12:00 +19°C° 0 mm 2 mps 579 mmHg 27%
    13:00 +19°C° 0 mm 2 mps 578 mmHg 27%
    14:00 +19°C° 0 mm 3 mps 578 mmHg 27%
    15:00 +18°C° 0 mm 2 mps 577 mmHg 35%
    16:00 +16°C° 0 mm 2 mps 577 mmHg 43%
    17:00 +14°C° 0 mm 1 mps 576 mmHg 50%
    18:00 +13°C° 0 mm 1 mps 576 mmHg 55%
    19:00 +12°C° 0 mm 1 mps 576 mmHg 60%
    20:00 +12°C° 0 mm 1 mps 576 mmHg 65%
    21:00 +11°C° 0 mm 1 mps 576 mmHg 65%
    22:00 +11°C° 0 mm 1 mps 576 mmHg 66%
    23:00 +11°C° 0 mm 1 mps 576 mmHg 66%

    Tomorrow, 25 November, Saturday

    Time Temperature Precipitation Wind Pressure Humidity
    00:00 +10°C° 0 mm 1 mps 576 mmHg 66%
    01:00 +10°C° 0 mm 1 mps 575 mmHg 65%
    02:00 +9°C° 0 mm 1 mps 575 mmHg 65%
    03:00 +9°C° 0 mm 1 mps 575 mmHg 63%
    04:00 +9°C° 0 mm 1 mps 575 mmHg 62%
    05:00 +9°C° 0 mm 1 mps 575 mmHg 60%
    06:00 +11°C° 0 mm 1 mps 576 mmHg 53%
    07:00 +13°C° 0 mm 1 mps 577 mmHg 46%
    08:00 +15°C° 0 mm 1 mps 579 mmHg 38%
    09:00 +18°C° 0 mm 1 mps 579 mmHg 33%
    10:00 +18°C° 0 mm 2 mps 580 mmHg 29%
    11:00 +20°C° 0 mm 2 mps 581 mmHg 24%
    12:00 +21°C° 0 mm 2 mps 580 mmHg 24%
    13:00 +21°C° 0 mm 2 mps 580 mmHg 23%
    14:00 +21°C° 0 mm 2 mps 579 mmHg 23%
    15:00 +19°C° 0 mm 2 mps 579 mmHg 31%
    16:00 +17°C° 0 mm 2 mps 578 mmHg 38%
    17:00 +15°C° 0 mm 2 mps 577 mmHg 45%
    18:00 +14°C° 0 mm 1 mps 578 mmHg 49%
    19:00 +14°C° 0 mm 1 mps 578 mmHg 54%
    20:00 +13°C° 0 mm 1 mps 578 mmHg 58%
    21:00 +12°C° 0 mm 1 mps 578 mmHg 59%
    22:00 +12°C° 0 mm 1 mps 578 mmHg 60%
    23:00 +11°C° 0 mm 1 mps 578 mmHg 61%

    Day after tomorrow, 26 November, Sunday

    Time Temperature Precipitation Wind Pressure Humidity
    00:00 +11°C° 0 mm 1 mps 578 mmHg 60%
    01:00 +9°C° 0 mm 2 mps 577 mmHg 59%
    02:00 +9°C° 0 mm 2 mps 577 mmHg 58%
    03:00 +9°C° 0 mm 2 mps 577 mmHg 55%
    04:00 +8°C° 0 mm 2 mps 577 mmHg 53%
    05:00 +8°C° 0 mm 2 mps 577 mmHg 50%
    06:00 +10°C° 0 mm 3 mps 578 mmHg 43%
    07:00 +11°C° 0 mm 3 mps 579 mmHg 37%
    08:00 +13°C° 0 mm 3 mps 581 mmHg 31%
    09:00 +16°C° 0 mm 3 mps 581 mmHg 29%
    10:00 +17°C° 0 mm 4 mps 582 mmHg 27%
    11:00 +19°C° 0 mm 4 mps 582 mmHg 25%
    12:00 +19°C° 0 mm 4 mps 582 mmHg 25%
    13:00 +19°C° 0 mm 4 mps 581 mmHg 26%
    14:00 +19°C° 0 mm 3 mps 580 mmHg 27%
    15:00 +17°C° 0 mm 3 mps 580 mmHg 33%
    16:00 +14°C° 0 mm 3 mps 579 mmHg 40%
    17:00 +12°C° 0 mm 3 mps 578 mmHg 47%
    18:00 +11°C° 0 mm 3 mps 578 mmHg 54%
    19:00 +10°C° 0 mm 3 mps 578 mmHg 62%
    20:00 +9°C° 0 mm 3 mps 578 mmHg 69%
    21:00 +9°C° 0 mm 2 mps 578 mmHg 70%
    22:00 +8°C° 0 mm 2 mps 578 mmHg 71%
    23:00 +8°C° 0 mm 2 mps 578 mmHg 72%

    27 November, Monday

    Time Temperature Precipitation Wind Pressure Humidity
    00:00 +7°C° 0 mm 2 mps 577 mmHg 71%
    01:00 +7°C° 0 mm 2 mps 577 mmHg 71%
    02:00 +7°C° 0 mm 2 mps 576 mmHg 70%
    03:00 +6°C° 0 mm 2 mps 576 mmHg 71%
    04:00 +6°C° 0 mm 2 mps 576 mmHg 72%
    05:00 +6°C° 0 mm 2 mps 576 mmHg 72%
    06:00 +8°C° 0 mm 2 mps 577 mmHg 66%
    07:00 +10°C° 0 mm 2 mps 578 mmHg 60%
    08:00 +12°C° 0 mm 2 mps 579 mmHg 54%
    09:00 +14°C° 0 mm 2 mps 580 mmHg 47%
    10:00 +17°C° 0 mm 2 mps 580 mmHg 40%
    11:00 +19°C° 0 mm 2 mps 581 mmHg 34%
    12:00 +19°C° 0 mm 2 mps 580 mmHg 32%
    13:00 +19°C° 0 mm 2 mps 580 mmHg 31%
    14:00 +20°C° 0 mm 2 mps 579 mmHg 29%
    15:00 +18°C° 0 mm 2 mps 578 mmHg 37%
    16:00 +16°C° 0 mm 2 mps 578 mmHg 44%
    17:00 +14°C° 0 mm 2 mps 577 mmHg 51%
    18:00 +14°C° 0 mm 1 mps 577 mmHg 57%
    19:00 +13°C° 0 mm 1 mps 577 mmHg 62%
    20:00 +12°C° 0 mm 1 mps 577 mmHg 68%
    21:00 +11°C° 0 mm 1 mps 577 mmHg 70%
    22:00 +11°C° 0 mm 1 mps 576 mmHg 72%
    23:00 +10°C° 0 mm 1 mps 576 mmHg 75%

    28 November, Tuesday

    Time Temperature Precipitation Wind Pressure Humidity
    00:00 +10°C° 0 mm 1 mps 576 mmHg 75%
    01:00 +10°C° 0 mm 1 mps 575 mmHg 74%
    02:00 +9°C° 0 mm 1 mps 575 mmHg 74%
    03:00 +9°C° 0 mm 1 mps 575 mmHg 72%
    04:00 +9°C° 0 mm 1 mps 575 mmHg 71%
    05:00 +8°C° 0 mm 1 mps 575 mmHg 69%
    06:00 +10°C° 0 mm 1 mps 576 mmHg 60%
    07:00 +12°C° 0 mm 1 mps 577 mmHg 51%
    08:00 +14°C° 0 mm 1 mps 578 mmHg 42%
    09:00 +16°C° 0 mm 1 mps 579 mmHg 36%
    10:00 +18°C° 0 mm 2 mps 579 mmHg 30%
    11:00 +20°C° 0 mm 2 mps 580 mmHg 25%
    12:00 +20°C° 0 mm 2 mps 579 mmHg 25%
    13:00 +21°C° 0 mm 2 mps 579 mmHg 25%
    14:00 +21°C° 0 mm 2 mps 578 mmHg 26%
    15:00 +19°C° 0 mm 2 mps 578 mmHg 34%
    16:00 +18°C° 0 mm 1 mps 577 mmHg 42%
    17:00 +15°C° 0 mm 1 mps 576 mmHg 49%
    18:00 +14°C° 0 mm 1 mps 577 mmHg 54%
    19:00 +13°C° 0 mm 0 mps 577 mmHg 58%
    20:00 +12°C° 0 mm 0 mps 577 mmHg 63%
    21:00 +11°C° 0 mm 0 mps 577 mmHg 63%
    22:00 +12°C° 0 mm 1 mps 577 mmHg 63%
    23:00 +12°C° 0 mm 1 mps 576 mmHg 62%

    29 November, Wednesday

    Time Temperature Precipitation Wind Pressure Humidity
    00:00 +11°C° 0 mm 1 mps 576 mmHg 62%
    01:00 +11°C° 0 mm 1 mps 576 mmHg 61%
    02:00 +11°C° 0 mm 1 mps 576 mmHg 61%
    03:00 +10°C° 0 mm 1 mps 576 mmHg 62%
    04:00 +10°C° 0 mm 1 mps 576 mmHg 62%
    05:00 +10°C° 0 mm 1 mps 576 mmHg 63%
    06:00 +11°C° 0 mm 1 mps 577 mmHg 58%
    07:00 +13°C° 0 mm 1 mps 579 mmHg 54%
    08:00 +15°C° 0 mm 2 mps 580 mmHg 49%
    09:00 +17°C° 0 mm 2 mps 580 mmHg 42%
    10:00 +18°C° 0 mm 2 mps 581 mmHg 34%
    11:00 +20°C° 0 mm 2 mps 581 mmHg 27%
    12:00 +20°C° 0 mm 2 mps 581 mmHg 28%
    13:00 +21°C° 0 mm 2 mps 581 mmHg 29%
    14:00 +21°C° 0 mm 3 mps 580 mmHg 30%
    15:00 +19°C° 0 mm 2 mps 580 mmHg 39%
    16:00 +17°C° 0 mm 2 mps 579 mmHg 48%
    17:00 +15°C° 0 mm 2 mps 579 mmHg 58%
    18:00 +14°C° 0 mm 2 mps 579 mmHg 63%
    19:00 +13°C° 0 mm 2 mps 579 mmHg 69%
    20:00 +12°C° 0 mm 2 mps 579 mmHg 75%
    21:00 +12°C° 0 mm 2 mps 578 mmHg 77%
    22:00 +10°C° 0 mm 2 mps 578 mmHg 80%
    23:00 +9°C° 0 mm 2 mps 578 mmHg 82%
    Show more